﻿Дата;RedTram;AdRiver;Google;C8 Network
2023-08-19;1;0;0;0
2023-07-13;0;1;0;0
2023-07-02;1;0;0;0
2023-06-29;0;1;0;0
2023-06-02;0;1;0;0
2023-05-03;0;1;0;0
2023-04-05;0;1;0;0
2023-04-03;1;1;0;0
2023-04-02;0;1;0;0
2023-03-24;0;2;0;0
2023-03-23;0;1;0;0
2023-03-22;0;1;0;0
2023-03-20;0;2;0;0
2020-12-20;0;0;1;0
2020-02-12;0;0;1;0
2019-01-09;0;0;1;0
2018-12-24;0;0;1;0
2015-10-19;1;0;0;0
2015-07-22;1;0;0;0
2015-07-10;1;0;0;0
2015-05-18;1;0;0;0
2015-05-15;1;0;0;0
2015-05-12;1;0;0;0
2015-05-10;2;0;0;0
2015-05-06;2;0;0;0
2015-05-05;1;0;0;0
2015-04-21;1;0;0;0
2015-03-30;1;0;0;0
2015-03-20;1;0;0;0
2015-03-13;1;0;0;0
2015-02-21;1;0;0;0
2015-02-18;1;0;0;0
2015-02-09;2;0;0;0
2015-02-06;1;0;0;0
2015-02-01;1;0;0;0
2015-01-26;1;0;0;0
2015-01-22;1;0;0;0
2015-01-19;3;0;0;0
2015-01-08;2;0;0;0
2015-01-01;1;0;0;0
2014-12-24;1;0;0;0
2014-12-19;2;0;0;0
2014-12-18;1;0;0;0
2014-12-17;4;0;0;0
2014-12-15;1;0;0;0
2014-12-12;1;0;0;0
2014-12-09;2;0;0;0
2014-12-08;1;0;0;0
2014-12-07;1;0;0;0
2014-12-04;1;0;0;0
2014-12-03;1;0;0;0
2014-11-27;1;0;0;0
2014-11-26;2;0;0;0
2014-11-18;2;0;0;0
2014-11-11;1;0;0;0
2014-11-05;1;0;0;0
2014-10-30;1;0;0;0
2014-10-29;1;0;0;0
2014-10-28;1;0;0;0
2014-10-27;1;0;0;0
2014-10-23;1;0;0;0
2014-10-15;1;0;0;0
2014-10-02;1;0;0;0
2014-09-23;1;0;0;0
2014-09-01;1;0;0;0
2014-08-27;1;0;0;0
2014-08-25;1;0;0;0
2014-08-20;1;0;0;0
2014-08-14;1;0;0;0
2014-08-05;2;0;0;0
2014-08-04;1;0;0;0
2014-07-30;3;0;0;0
2014-07-25;1;0;0;0
2014-07-21;2;0;0;0
2014-07-18;1;0;0;0
2014-07-17;1;0;0;0
2014-07-08;1;0;0;0
2014-06-26;1;0;0;0
2014-06-19;1;0;0;0
2014-06-18;2;0;0;0
2014-06-17;2;0;0;0
2014-06-16;1;0;0;0
2014-06-07;1;0;0;0
2014-06-03;1;0;0;0
2014-06-01;1;0;0;0
2014-05-31;1;0;0;0
2014-05-29;1;0;0;0
2014-05-12;2;0;0;0
2014-05-08;1;0;0;0
2014-05-07;1;0;0;0
2014-05-05;0;0;1;0
2014-04-29;1;0;0;0
2014-04-23;2;0;0;0
2014-04-22;2;0;0;0
2014-04-21;1;0;0;0
2014-04-20;2;0;0;0
2014-04-19;1;0;0;0
2014-04-17;1;0;0;0
2014-04-16;1;0;0;0
2014-04-15;1;0;0;0
2014-04-14;4;0;0;0
2014-04-13;1;0;0;0
2014-04-11;1;0;0;0
2014-04-10;1;0;0;0
2014-04-09;2;0;0;0
2014-04-07;1;0;0;0
2014-04-06;1;0;0;0
2014-04-04;3;0;0;0
2014-04-03;2;0;0;0
2014-04-02;2;0;0;0
2014-04-01;3;0;0;0
2014-03-31;1;0;0;0
2014-03-30;2;0;0;0
2014-03-29;1;0;0;0
2014-03-28;2;0;0;0
2014-03-27;3;0;0;0
2014-03-26;3;0;0;0
2014-03-25;5;0;0;0
2014-03-24;1;0;0;0
2014-03-22;1;0;0;0
2014-03-20;3;0;0;0
2014-03-19;3;0;0;0
2014-03-18;2;0;0;0
2014-03-17;4;0;0;0
2014-03-15;1;0;0;0
2014-03-14;1;0;0;0
2014-03-13;1;0;0;0
2014-03-12;2;0;0;0
2014-03-11;3;0;0;0
2014-03-10;3;0;0;0
2014-03-09;1;0;0;0
2014-03-08;3;0;0;0
2014-03-07;1;0;0;0
2014-03-06;1;0;0;0
2014-03-05;5;0;0;0
2014-03-04;4;0;0;0
2014-03-03;3;0;0;0
2014-03-02;1;0;0;0
2014-03-01;4;0;0;0
2014-02-28;5;0;0;0
2014-02-27;1;0;0;0
2014-02-26;1;0;0;0
2014-02-25;3;0;0;0
2014-02-24;3;0;0;0
2014-02-23;1;0;0;0
2014-02-22;3;0;0;0
2014-02-21;2;0;0;0
2014-02-20;2;0;0;0
2014-02-19;2;0;0;0
2014-02-18;4;0;0;0
2014-02-17;1;0;0;0
2014-02-15;1;0;0;0
2014-02-14;1;0;0;0
2014-02-13;1;0;0;0
2014-02-12;1;0;0;0
2014-02-11;2;0;0;0
2014-02-10;3;0;0;0
2014-02-09;2;0;0;0
2014-02-08;3;0;0;0
2014-02-07;1;0;0;0
2014-02-06;1;0;0;0
2014-02-05;2;0;0;0
2014-02-04;3;0;0;0
2014-02-03;1;0;0;0
2014-02-01;1;0;0;0
2014-01-31;14;0;0;0
2014-01-30;34;0;0;0
2014-01-29;108;0;0;0
2014-01-28;99;0;0;0
2014-01-27;126;0;0;0
2014-01-26;41;0;0;0
2014-01-25;52;0;0;0
2014-01-24;97;0;0;0
2014-01-23;54;0;0;0
2014-01-22;50;0;0;0
2014-01-21;31;0;0;0
2014-01-20;20;0;0;0
2014-01-19;19;0;0;0
2014-01-18;20;0;0;0
2014-01-17;24;0;0;0
2014-01-16;31;0;0;0
2014-01-15;31;0;0;0
2014-01-14;26;0;0;0
2014-01-13;29;0;0;0
2014-01-12;29;0;0;0
2014-01-11;46;0;0;0
2014-01-10;37;0;0;0
2014-01-09;27;0;0;0
2014-01-08;36;0;0;0
2014-01-07;30;0;0;0
2014-01-06;26;0;0;0
2014-01-05;12;0;0;0
2014-01-04;24;0;0;0
2014-01-03;49;0;0;0
2014-01-02;34;0;0;0
2014-01-01;20;0;0;0
2013-12-31;25;0;0;0
2013-12-30;29;0;0;0
2013-12-29;24;0;0;0
2013-12-28;24;0;0;0
2013-12-27;32;0;0;0
2013-12-26;32;0;0;0
2013-12-25;49;0;0;0
2013-12-24;53;0;0;0
2013-12-23;49;0;0;0
2013-12-22;24;0;0;0
2013-12-21;27;0;0;0
2013-12-20;28;0;0;0
2013-12-19;54;0;0;0
2013-12-18;38;0;0;0
2013-12-17;37;0;0;0
2013-12-16;60;0;0;0
2013-12-15;38;0;0;0
2013-12-14;27;0;0;0
2013-12-13;49;0;0;0
2013-12-12;37;0;0;0
2013-12-11;58;0;0;0
2013-12-10;54;0;0;0
2013-12-09;72;0;0;0
2013-12-08;49;0;0;0
2013-12-07;41;0;0;0
2013-12-06;60;0;0;0
2013-12-05;82;0;0;0
2013-12-04;46;0;0;0
2013-12-03;24;0;0;0
2013-12-02;54;0;0;0
2013-12-01;21;0;0;0
2013-11-30;16;0;0;0
2013-11-29;28;0;0;0
2013-11-28;19;0;0;0
2013-11-27;18;0;0;0
2013-11-26;22;0;0;0
2013-11-25;32;0;0;0
2013-11-24;17;0;0;0
2013-11-23;16;0;0;0
2013-11-22;31;0;0;0
2013-11-21;29;0;0;0
2013-11-20;30;0;0;0
2013-11-19;30;0;0;0
2013-11-18;27;0;0;0
2013-11-17;18;0;0;0
2013-11-16;9;0;0;0
2013-11-15;21;0;0;0
2013-11-14;36;0;0;0
2013-11-13;43;0;0;0
2013-11-12;33;0;0;0
2013-11-11;44;0;0;0
2013-11-10;14;0;0;0
2013-11-09;9;0;0;0
2013-11-08;24;0;0;0
2013-11-07;27;0;0;0
2013-11-06;22;0;0;0
2013-11-05;21;0;0;0
2013-11-04;11;0;0;0
2013-11-03;9;0;0;0
2013-11-02;17;0;0;0
2013-11-01;12;0;0;0
2013-10-31;19;0;0;0
2013-10-30;5;0;0;0
2013-10-29;14;0;0;0
2013-10-28;22;0;0;0
2013-10-27;33;0;0;0
2013-10-26;6;0;0;0
2013-10-25;17;0;0;0
2013-10-24;27;0;0;0
2013-10-23;25;0;0;0
2013-10-22;18;0;0;0
2013-10-21;15;0;0;0
2013-10-20;12;0;0;0
2013-10-19;21;0;0;0
2013-10-18;10;0;0;0
2013-10-17;18;0;0;0
2013-10-16;28;0;0;0
2013-10-15;13;0;0;0
2013-10-14;15;0;0;0
2013-10-12;2;0;0;0
2013-10-11;2;0;0;0
2013-10-10;1;0;0;0
2013-10-09;1;0;0;0
2013-10-08;2;0;0;0
2013-10-07;4;0;0;0
2013-10-05;2;0;0;0
2013-10-04;1;0;0;0
2013-10-03;15;0;0;0
2013-10-02;14;0;0;0
2013-10-01;20;0;0;0
2013-09-30;5;0;0;0
2013-09-29;6;0;0;0
2013-09-28;5;0;0;0
2013-09-27;14;0;0;0
2013-09-26;13;0;0;0
2013-09-25;5;0;0;0
2013-09-24;3;0;0;0
2013-09-23;7;0;0;0
2013-09-20;1;0;0;0
2013-09-19;1;0;0;0
2013-09-18;3;0;0;0
2013-09-17;3;0;0;0
2013-09-16;8;0;0;0
2013-09-15;3;0;0;0
2013-09-14;4;0;0;0
2013-09-13;7;0;0;0
2013-09-11;4;0;0;0
2013-09-09;1;0;0;0
2013-09-08;3;0;0;0
2013-09-05;9;0;0;0
2013-09-04;12;0;0;0
2013-09-03;8;0;0;0
2013-09-02;16;0;0;0
2013-09-01;2;0;0;0
2013-08-31;13;0;0;0
2013-08-30;10;0;0;0
2013-08-29;7;0;0;0
2013-08-28;16;0;0;0
2013-08-27;4;0;0;0
2013-08-26;4;0;0;0
2013-08-25;6;0;0;0
2013-08-24;11;0;0;0
2013-08-23;4;0;0;0
2013-08-22;7;0;0;0
2013-08-21;5;0;0;0
2013-08-20;4;0;0;0
2013-08-19;3;0;0;0
2013-08-18;5;0;0;0
2013-08-17;1;0;0;0
2013-08-16;2;0;0;0
2013-08-14;4;0;0;0
2013-08-13;1;0;0;0
2013-08-12;1;0;0;0
2013-08-11;1;0;0;0
2013-08-10;5;0;0;0
2013-08-09;2;0;0;0
2013-08-07;3;0;0;0
2013-08-06;3;0;0;0
2013-08-04;1;0;0;0
2013-08-03;1;0;0;0
2013-08-01;4;0;0;0
2013-07-31;2;0;0;0
2013-07-30;7;0;0;0
2013-07-29;5;0;0;0
2013-07-28;1;0;0;0
2013-07-27;1;0;0;0
2013-07-26;10;0;0;0
2013-07-25;2;0;0;0
2013-07-24;3;0;0;0
2013-07-23;7;0;0;0
2013-07-22;10;0;0;0
2013-07-21;3;0;0;0
2013-07-18;4;0;0;0
2013-07-17;2;0;0;0
2013-07-16;1;0;0;0
2013-07-15;6;0;0;0
2013-07-14;6;0;0;0
2013-07-13;3;0;0;0
2013-07-12;2;0;0;0
2013-07-09;1;0;0;0
2013-07-08;2;0;0;0
2013-07-07;3;0;0;0
2013-07-04;3;0;0;0
2013-07-02;3;0;0;0
2013-06-26;3;0;0;0
2013-06-24;2;0;0;0
2013-06-21;1;0;0;0
2013-06-20;1;0;0;0
2013-06-18;1;0;0;0
2013-06-17;1;0;0;0
2013-06-16;4;0;0;0
2013-06-15;4;0;0;0
2013-06-11;1;0;0;0
2013-06-09;3;0;0;0
2013-06-05;1;0;0;0
2013-06-03;1;0;0;0
2013-06-02;2;0;0;0
2013-06-01;7;0;0;0
2013-05-31;1;0;0;0
2013-05-27;2;0;0;0
2013-05-26;2;0;0;0
2013-05-24;2;0;0;0
2013-05-22;1;0;0;0
2013-05-19;4;0;0;0
2013-05-18;1;0;0;0
2013-05-17;1;0;0;0
2013-05-16;1;0;0;0
2013-05-15;4;0;0;0
2013-05-14;6;0;0;0
2013-05-13;6;0;0;0
2013-05-12;3;0;0;0
2013-05-11;2;0;0;0
2013-05-10;4;0;0;0
2013-05-09;1;0;0;0
2013-05-08;6;0;0;0
2013-05-07;6;0;0;0
2013-05-06;1;0;0;0
2013-05-04;4;0;0;0
2013-05-02;1;0;0;0
2013-04-30;1;0;0;0
2013-04-29;3;0;0;0
2013-04-28;1;0;0;0
2013-04-27;3;0;0;0
2013-04-26;2;0;0;0
2013-04-25;4;0;0;0
2013-04-24;3;0;0;0
2013-04-23;4;0;0;0
2013-04-22;8;0;0;0
2013-04-21;2;0;0;0
2013-04-20;4;0;0;0
2013-04-19;2;0;0;0
2013-04-18;5;0;0;0
2013-04-17;9;0;0;0
2013-04-16;4;0;0;0
2013-04-15;8;0;0;0
2013-04-13;4;0;0;0
2013-04-12;4;0;0;0
2013-04-11;3;0;0;0
2013-04-10;4;0;0;0
2013-04-09;2;0;0;0
2013-04-08;6;0;0;0
2013-04-07;6;0;0;0
2013-04-06;5;0;0;0
2013-04-05;2;0;0;0
2013-04-04;14;0;0;0
2013-04-03;9;0;0;0
2013-04-02;14;0;0;0
2013-03-31;17;0;0;0
2013-03-30;4;0;0;0
2013-03-29;6;0;0;0
2013-03-28;17;0;0;0
2013-03-27;6;0;0;0
2013-03-26;15;0;0;0
2013-03-25;16;0;0;0
2013-03-24;9;0;0;0
2013-03-23;7;0;0;0
2013-03-22;8;0;0;0
2013-03-21;24;0;0;0
2013-03-20;29;0;0;0
2013-03-19;13;0;0;0
2013-03-18;3;0;0;0
2013-03-17;16;0;0;0
2013-03-16;14;0;0;0
2013-03-15;12;0;0;0
2013-03-14;34;0;0;0
2013-03-13;20;0;0;0
2013-03-12;30;0;0;0
2013-03-11;30;0;0;0
2013-03-10;11;0;0;0
2013-03-09;13;0;0;0
2013-03-08;3;0;0;0
2013-03-07;21;0;0;0
2013-03-06;20;0;0;0
2013-03-05;26;0;0;0
2013-03-04;20;0;0;0
2013-03-03;12;0;0;0
2013-03-02;18;0;0;0
2013-03-01;4;0;0;0
2013-02-28;13;0;0;0
2013-02-27;27;0;0;0
2013-02-26;20;0;0;0
2013-02-25;21;0;0;0
2013-02-24;6;0;0;0
2013-02-23;5;0;0;0
2013-02-22;16;0;0;0
2013-02-21;26;0;0;0
2013-02-20;38;0;0;0
2013-02-19;20;0;0;0
2013-02-18;6;0;0;0
2013-02-17;21;0;0;0
2013-02-16;16;0;0;0
2013-02-15;11;0;0;0
2013-02-14;6;0;0;0
2013-02-13;10;0;0;0
2013-02-12;8;0;0;0
2013-02-11;14;0;0;0
2013-02-10;17;0;0;0
2013-02-09;7;0;0;0
2013-02-08;8;0;0;0
2013-02-07;25;0;0;0
2013-02-06;7;0;0;0
2013-02-05;14;0;0;0
2013-02-04;13;0;0;0
2013-02-03;7;0;0;0
2013-02-02;14;0;0;0
2013-02-01;17;0;0;0
2013-01-31;19;0;1;0
2013-01-30;21;0;0;0
2013-01-29;30;0;0;0
2013-01-28;6;0;0;0
2013-01-27;18;0;0;0
2013-01-26;18;0;0;0
2013-01-25;11;0;0;0
2013-01-24;21;0;0;0
2013-01-23;24;0;0;0
2013-01-22;23;0;0;0
2013-01-21;14;0;0;0
2013-01-20;10;0;0;0
2013-01-19;13;0;0;0
2013-01-18;5;0;0;0
2013-01-17;24;0;0;0
2013-01-16;20;0;0;0
2013-01-15;8;0;0;0
2013-01-14;18;0;0;0
2013-01-13;11;0;0;0
2013-01-12;6;0;1;0
2013-01-11;4;0;0;0
2013-01-10;10;0;0;0
2013-01-09;8;0;0;0
2013-01-08;5;0;0;0
2013-01-07;4;0;0;0
2013-01-06;4;0;0;0
2013-01-05;8;0;0;0
2013-01-04;3;0;0;0
2013-01-03;3;0;0;0
2013-01-02;16;0;0;0
2013-01-01;3;0;0;0
2012-12-31;2;0;0;0
2012-12-30;6;0;0;0
2012-12-29;9;0;0;0
2012-12-28;11;0;0;0
2012-12-27;3;0;0;0
2012-12-26;6;0;0;0
2012-12-25;9;0;0;0
2012-12-24;8;0;0;0
2012-12-23;3;0;0;0
2012-12-22;3;0;0;0
2012-12-21;1;0;0;0
2012-12-20;4;0;0;1
2012-12-19;6;0;0;0
2012-12-18;2;0;0;0
2012-12-17;2;0;0;0
2012-12-16;1;0;0;0
2012-12-13;3;0;0;0
2012-12-12;1;0;0;0
2012-12-11;2;0;0;0
2012-12-10;2;0;0;0
2012-12-09;4;0;0;0
2012-12-08;1;0;0;0
2012-12-07;7;0;0;0
2012-12-06;1;0;0;0
2012-12-05;5;0;0;0
2012-12-04;7;0;0;0
2012-12-03;9;0;0;0
2012-12-02;9;0;0;0
2012-12-01;17;0;0;0
2012-11-30;2;0;0;0
2012-11-29;4;0;0;0
2012-11-28;8;0;0;0
2012-11-27;22;0;0;0
2012-11-25;1;0;0;0
2012-11-24;2;0;0;0
2012-11-22;1;0;0;0
2012-11-21;3;0;0;0
2012-11-20;1;0;0;0
2012-11-19;5;0;0;0
2012-11-17;1;0;0;0
2012-11-16;4;0;0;0
2012-11-14;3;0;0;0
2012-11-13;2;0;0;0
2012-11-12;7;0;0;0
2012-11-11;1;0;0;0
2012-11-09;4;0;0;0
2012-11-06;3;0;0;0
2012-11-05;3;0;0;0
2012-11-04;5;0;0;0
2012-11-02;4;0;0;0
2012-11-01;5;0;0;0
2012-10-31;3;0;0;0
2012-10-30;4;0;0;0
2012-10-29;3;0;0;0
2012-10-27;2;0;0;0
2012-10-26;2;0;0;0
2012-10-25;1;0;0;0
2012-10-24;4;0;0;0
2012-10-23;4;0;0;0
2012-10-22;4;0;0;0
2012-10-21;2;0;0;0
2012-10-19;6;0;0;0
2012-10-18;1;0;0;0
2012-10-17;5;0;0;0
2012-10-16;3;0;0;0
2012-10-15;2;0;0;0
2012-10-14;1;0;0;0
2012-10-13;2;0;0;0
2012-10-12;1;0;0;0
2012-10-10;4;0;0;0
2012-10-09;3;0;0;0
2012-10-08;2;0;0;0
2012-10-07;3;0;0;0
2012-10-06;2;0;0;0
2012-10-05;1;0;0;0
2012-10-03;1;0;0;0
2012-10-02;2;0;0;0
2012-10-01;1;0;0;0
2012-09-29;5;0;0;0
2012-09-28;2;0;0;0
2012-09-27;2;0;0;0
2012-09-26;1;0;0;0
2012-09-25;1;0;0;0
2012-09-24;2;0;0;0
2012-09-23;4;0;0;0
2012-09-21;7;0;0;0
2012-09-20;7;0;0;0
2012-09-19;4;0;0;0
2012-09-18;3;0;0;0
2012-09-16;2;0;0;0
2012-09-15;2;0;0;0
2012-09-14;2;0;0;0
2012-09-13;1;0;0;0
2012-09-11;3;0;0;0
2012-09-09;2;0;0;0
2012-09-08;3;0;0;0
2012-09-07;5;0;0;0
2012-09-06;8;0;0;0
2012-09-05;4;0;0;0
2012-09-03;6;0;0;0
2012-09-02;2;0;0;0
2012-08-30;2;0;0;0
2012-08-29;1;0;0;0
2012-08-28;3;0;0;0
2012-08-27;1;0;0;0
2012-08-26;5;0;0;0
2012-08-25;3;0;0;0
2012-08-24;9;0;0;0
2012-08-23;5;0;0;0
2012-08-22;5;0;0;0
2012-08-21;4;0;0;0
2012-08-20;4;0;0;0
2012-08-19;7;0;0;0
2012-08-18;13;0;0;0
2012-08-17;5;0;0;0
2012-08-16;28;0;0;0
2012-08-15;7;0;0;0
2012-08-14;16;0;0;0
2012-08-13;24;0;0;0
2012-08-12;5;0;0;0
2012-08-11;9;0;0;0
2012-08-10;19;0;0;0
2012-08-09;11;0;0;0
2012-08-08;28;0;0;0
2012-08-07;23;0;0;0
2012-08-06;12;0;0;0
2012-08-05;8;0;0;0
2012-08-04;8;0;0;0
2012-08-03;16;0;0;0
2012-08-02;38;0;1;0
2012-08-01;23;0;0;0
2012-07-31;37;0;0;0
2012-07-30;73;0;0;0
2012-07-29;33;0;0;0
2012-07-28;35;0;0;0
